| time (UTC) | temp F | wind direction | speed MPH | gust MPH | rain 1hr in | rain 24hr in | rain mn in | humidity % | barometer mb |
| 20260508222931 | 69 | 99 | 0.0 | 2.0 | 0.00 | 0.00 | 0.00 | 37 | 1004.9 |
| 20260508222428 | 70 | 181 | 2.0 | 4.0 | 0.00 | 0.00 | 0.00 | 37 | 1004.8 |
| 20260508221925 | 70 | 281 | 2.0 | 3.0 | 0.00 | 0.00 | 0.00 | 37 | 1004.9 |
| 20260508221420 | 69 | 201 | 1.0 | 3.0 | 0.00 | 0.00 | 0.00 | 41 | 1004.6 |
| 20260508220917 | 68 | 196 | 2.0 | 2.0 | 0.00 | 0.00 | 0.00 | 39 | 1004.8 |
| 20260508220414 | 68 | 109 | 0.0 | 2.0 | 0.00 | 0.00 | 0.00 | 39 | 1005.1 |
| 20260508215910 | 69 | 269 | 0.0 | 3.0 | 0.00 | 0.00 | 0.00 | 38 | 1005.0 |
| 20260508215407 | 67 | 255 | 2.0 | 3.0 | 0.00 | 0.00 | 0.00 | 43 | 1005.2 |
| 20260508214903 | 66 | 125 | 1.0 | 2.0 | 0.00 | 0.00 | 0.00 | 42 | 1005.1 |
| 20260508214401 | 65 | 37 | 0.0 | 2.0 | 0.00 | 0.00 | 0.00 | 45 | 1005.4 |
| 20260508213857 | 64 | 97 | 2.0 | 2.0 | 0.00 | 0.00 | 0.00 | 40 | 1005.0 |
| 20260508213354 | 65 | 147 | 0.0 | 2.0 | 0.00 | 0.00 | 0.00 | 40 | 1005.3 |
| 20260508212850 | 66 | 45 | 4.0 | 4.0 | 0.00 | 0.00 | 0.00 | 38 | 1005.2 |
| 20260508212347 | 66 | 138 | 2.0 | 4.0 | 0.00 | 0.00 | 0.00 | 38 | 1005.2 |
| 20260508211842 | 66 | 61 | 3.0 | 4.0 | 0.00 | 0.00 | 0.00 | 39 | 1005.3 |
| 20260508211338 | 65 | 94 | 1.0 | 2.0 | 0.00 | 0.00 | 0.00 | 39 | 1005.3 |
| 20260508210836 | 66 | 55 | 0.0 | 6.0 | 0.00 | 0.00 | 0.00 | 36 | 1005.4 |
| 20260508210332 | 67 | 1 | 1.0 | 3.0 | 0.00 | 0.00 | 0.00 | 38 | 1005.3 |
| 20260508205829 | 66 | 107 | 2.0 | 5.0 | 0.00 | 0.00 | 0.00 | 38 | 1005.5 |
| 20260508205326 | 65 | 37 | 0.0 | 5.0 | 0.00 | 0.00 | 0.00 | 37 | 1005.5 |
| 20260508204822 | 66 | 106 | 1.0 | 8.0 | 0.00 | 0.00 | 0.00 | 35 | 1005.5 |
| 20260508204319 | 67 | 317 | 0.0 | 6.0 | 0.00 | 0.00 | 0.00 | 34 | 1005.4 |
| 20260508203815 | 66 | 28 | 2.0 | 2.0 | 0.00 | 0.00 | 0.00 | 36 | 1005.6 |
| 20260508203311 | 66 | 71 | 3.0 | 5.0 | 0.00 | 0.00 | 0.00 | 33 | 1005.7 |
| 20260508202807 | 66 | 351 | 1.0 | 2.0 | 0.00 | 0.00 | 0.00 | 35 | 1005.8 |
| 20260508202307 | 67 | 15 | 2.0 | 4.0 | 0.00 | 0.00 | 0.00 | 32 | 1005.8 |
| 20260508201802 | 68 | 26 | 4.0 | 4.0 | 0.00 | 0.00 | 0.00 | 32 | 1005.8 |
| 20260508201258 | 67 | 133 | 0.0 | 3.0 | 0.00 | 0.00 | 0.00 | 31 | 1006.0 |
| 20260508200755 | 67 | 157 | 0.0 | 3.0 | 0.00 | 0.00 | 0.00 | 33 | 1006.2 |
| 20260508200251 | 67 | 75 | 3.0 | 4.0 | 0.00 | 0.00 | 0.00 | 31 | 1006.1 |
| 20260508195747 | 68 | 79 | 2.0 | 4.0 | 0.00 | 0.00 | 0.00 | 30 | 1006.1 |
| 20260508195244 | 66 | 27 | 2.0 | 2.0 | 0.00 | 0.00 | 0.00 | 32 | 1006.3 |
| 20260508194741 | 67 | 285 | 1.0 | 2.0 | 0.00 | 0.00 | 0.00 | 32 | 1006.3 |
| 20260508194238 | 69 | 38 | 0.0 | 6.0 | 0.00 | 0.00 | 0.00 | 29 | 1006.3 |
| 20260508193735 | 70 | 179 | 0.0 | 3.0 | 0.00 | 0.00 | 0.00 | 30 | 1006.4 |
| 20260508193231 | 69 | 180 | 1.0 | 2.0 | 0.00 | 0.00 | 0.00 | 32 | 1006.5 |
| 20260508192728 | 68 | 166 | 0.0 | 4.0 | 0.00 | 0.00 | 0.00 | 33 | 1006.5 |
| 20260508192225 | 68 | 203 | 0.0 | 3.0 | 0.00 | 0.00 | 0.00 | 29 | 1006.5 |
| 20260508191722 | 67 | 25 | 4.0 | 4.0 | 0.00 | 0.00 | 0.00 | 30 | 1006.5 |
| 20260508191219 | 67 | 44 | 3.0 | 4.0 | 0.00 | 0.00 | 0.00 | 29 | 1006.7 |
| 20260508190716 | 68 | 338 | 3.0 | 4.0 | 0.00 | 0.00 | 0.00 | 30 | 1006.6 |
| 20260508190213 | 68 | 0 | 4.0 | 5.0 | 0.00 | 0.00 | 0.00 | 33 | 1006.8 |
| 20260508185709 | 68 | 310 | 1.0 | 3.0 | 0.00 | 0.00 | 0.00 | 29 | 1007.0 |
| 20260508185207 | 69 | 129 | 2.0 | 4.0 | 0.00 | 0.00 | 0.00 | 28 | 1007.1 |
| 20260508184704 | 68 | 188 | 2.0 | 3.0 | 0.00 | 0.00 | 0.00 | 30 | 1007.1 |
| 20260508184201 | 66 | 181 | 2.0 | 3.0 | 0.00 | 0.00 | 0.00 | 35 | 1007.0 |
| 20260508183658 | 66 | 335 | 4.0 | 5.0 | 0.00 | 0.00 | 0.00 | 30 | 1007.1 |
| 20260508183154 | 69 | 105 | 2.0 | 6.0 | 0.00 | 0.00 | 0.00 | 28 | 1007.3 |
| 20260508182650 | 69 | 152 | 0.0 | 2.0 | 0.00 | 0.00 | 0.00 | 30 | 1007.4 |
| 20260508182147 | 69 | 287 | 1.0 | 2.0 | 0.00 | 0.00 | 0.00 | 33 | 1007.4 |
| 20260508181642 | 69 | 157 | 0.0 | 2.0 | 0.00 | 0.00 | 0.00 | 29 | 1007.3 |
| 20260508181140 | 68 | 80 | 1.0 | 3.0 | 0.00 | 0.00 | 0.00 | 31 | 1007.5 |
| 20260508180636 | 67 | 64 | 2.0 | 2.0 | 0.00 | 0.00 | 0.00 | 30 | 1007.5 |
| 20260508180133 | 65 | 29 | 2.0 | 3.0 | 0.00 | 0.00 | 0.00 | 31 | 1007.5 |
| 20260508175630 | 66 | 334 | 3.0 | 4.0 | 0.00 | 0.00 | 0.00 | 32 | 1007.6 |
| 20260508175126 | 67 | 100 | 2.0 | 4.0 | 0.00 | 0.00 | 0.00 | 34 | 1007.5 |
| 20260508174624 | 67 | 187 | 2.0 | 3.0 | 0.00 | 0.00 | 0.00 | 31 | 1007.8 |
| 20260508174121 | 67 | 223 | 2.0 | 4.0 | 0.00 | 0.00 | 0.00 | 32 | 1007.9 |
| 20260508173618 | 66 | 308 | 1.0 | 2.0 | 0.00 | 0.00 | 0.00 | 36 | 1007.9 |
| 20260508173114 | 66 | 142 | 0.0 | 3.0 | 0.00 | 0.00 | 0.00 | 38 | 1008.1 |
| 20260508172611 | 66 | 67 | 2.0 | 5.0 | 0.00 | 0.00 | 0.00 | 35 | 1008.1 |
| 20260508172107 | 66 | 307 | 0.0 | 3.0 | 0.00 | 0.00 | 0.00 | 38 | 1008.4 |
| 20260508171604 | 66 | 271 | 2.0 | 2.0 | 0.00 | 0.00 | 0.00 | 32 | 1008.2 |
| 20260508171100 | 65 | 0 | 0.0 | 3.0 | 0.00 | 0.00 | 0.00 | 34 | 1008.4 |
| 20260508170558 | 64 | 37 | 3.0 | 5.0 | 0.00 | 0.00 | 0.00 | 35 | 1008.5 |
| 20260508170055 | 65 | 36 | 4.0 | 4.0 | 0.00 | 0.00 | 0.00 | 36 | 1008.5 |
| 20260508165552 | 65 | 257 | 0.0 | 3.0 | 0.00 | 0.00 | 0.00 | 31 | 1008.8 |
| 20260508165049 | 65 | 130 | 2.0 | 2.0 | 0.00 | 0.00 | 0.00 | 35 | 1008.8 |
| 20260508164545 | 65 | 89 | 0.0 | 2.0 | 0.00 | 0.00 | 0.00 | 32 | 1009.0 |
| 20260508164042 | 65 | 147 | 0.0 | 3.0 | 0.00 | 0.00 | 0.00 | 32 | 1009.1 |
| 20260508163540 | 64 | 72 | 0.0 | 5.0 | 0.00 | 0.00 | 0.00 | 35 | 1009.2 |
| 20260508163036 | 64 | 212 | 0.0 | 2.0 | 0.00 | 0.00 | 0.00 | 34 | 1009.3 |
| 20260508162533 | 62 | 304 | 0.0 | 3.0 | 0.00 | 0.00 | 0.00 | 32 | 1009.3 |
| 20260508162031 | 63 | 174 | 0.0 | 2.0 | 0.00 | 0.00 | 0.00 | 31 | 1009.5 |
| 20260508161527 | 63 | 52 | 2.0 | 6.0 | 0.00 | 0.00 | 0.00 | 33 | 1009.2 |
| 20260508161024 | 63 | 352 | 0.0 | 1.0 | 0.00 | 0.00 | 0.00 | 34 | 1009.3 |
| 20260508160523 | 62 | 23 | 1.0 | 6.0 | 0.00 | 0.00 | 0.00 | 33 | 1009.6 |
| 20260508160020 | 64 | 80 | 3.0 | 5.0 | 0.00 | 0.00 | 0.00 | 31 | 1009.3 |
| 20260508155516 | 64 | 191 | 0.0 | 3.0 | 0.00 | 0.00 | 0.00 | 31 | 1009.6 |
| 20260508155014 | 62 | 65 | 1.0 | 4.0 | 0.00 | 0.00 | 0.00 | 33 | 1009.6 |
| 20260508154511 | 63 | 15 | 3.0 | 4.0 | 0.00 | 0.00 | 0.00 | 31 | 1009.5 |
| 20260508154007 | 63 | 39 | 3.0 | 6.0 | 0.00 | 0.00 | 0.00 | 28 | 1009.5 |
| 20260508153504 | 62 | 61 | 2.0 | 3.0 | 0.00 | 0.00 | 0.00 | 39 | 1009.6 |
| 20260508153001 | 62 | 344 | 1.0 | 2.0 | 0.00 | 0.00 | 0.00 | 36 | 1009.8 |
| 20260508152458 | 63 | 262 | 2.0 | 2.0 | 0.00 | 0.00 | 0.00 | 35 | 1009.6 |
| 20260508151953 | 62 | 55 | 1.0 | 4.0 | 0.00 | 0.00 | 0.00 | 39 | 1009.7 |
| 20260508151450 | 63 | 91 | 2.0 | 4.0 | 0.00 | 0.00 | 0.00 | 39 | 1009.7 |
| 20260508150947 | 64 | 208 | 0.0 | 2.0 | 0.00 | 0.00 | 0.00 | 35 | 1009.7 |
| 20260508150444 | 64 | 85 | 2.0 | 2.0 | 0.00 | 0.00 | 0.00 | 41 | 1009.5 |
| 20260508145939 | 64 | 63 | 0.0 | 3.0 | 0.00 | 0.00 | 0.00 | 40 | 1009.7 |
| 20260508145436 | 62 | 97 | 2.0 | 3.0 | 0.00 | 0.00 | 0.00 | 45 | 1009.9 |
| 20260508144933 | 62 | 75 | 3.0 | 4.0 | 0.00 | 0.00 | 0.00 | 47 | 1009.8 |
| 20260508144431 | 59 | 69 | 2.0 | 3.0 | 0.00 | 0.00 | 0.00 | 54 | 1009.9 |
| 20260508143928 | 59 | 27 | 3.0 | 3.0 | 0.00 | 0.00 | 0.00 | 57 | 1009.9 |
| 20260508143425 | 57 | 69 | 3.0 | 4.0 | 0.00 | 0.00 | 0.00 | 58 | 1010.1 |
| 20260508142921 | 59 | 72 | 3.0 | 4.0 | 0.00 | 0.00 | 0.00 | 56 | 1009.8 |
| 20260508142419 | 59 | 105 | 2.0 | 3.0 | 0.00 | 0.00 | 0.00 | 59 | 1009.7 |
| 20260508141915 | 59 | 72 | 2.0 | 6.0 | 0.00 | 0.00 | 0.00 | 58 | 1010.1 |
| 20260508141412 | 57 | 84 | 1.0 | 2.0 | 0.00 | 0.00 | 0.00 | 65 | 1009.9 |
| 20260508140909 | 56 | 80 | 2.0 | 4.0 | 0.00 | 0.00 | 0.00 | 64 | 1010.0 |
| 20260508140406 | 56 | 62 | 1.0 | 2.0 | 0.00 | 0.00 | 0.00 | 64 | 1010.0 |
| 20260508135902 | 56 | 78 | 1.0 | 2.0 | 0.00 | 0.00 | 0.00 | 64 | 1010.0 |
| 20260508135359 | 55 | 67 | 2.0 | 3.0 | 0.00 | 0.00 | 0.00 | 67 | 1009.9 |
| 20260508134855 | 54 | 85 | 0.0 | 2.0 | 0.00 | 0.00 | 0.00 | 69 | 1009.9 |
| 20260508134352 | 53 | 88 | 3.0 | 4.0 | 0.00 | 0.00 | 0.00 | 72 | 1009.7 |
| 20260508133848 | 54 | 42 | 3.0 | 5.0 | 0.00 | 0.00 | 0.00 | 70 | 1009.8 |
| 20260508133346 | 54 | 48 | 3.0 | 4.0 | 0.00 | 0.00 | 0.00 | 71 | 1010.0 |
| 20260508132843 | 53 | 80 | 2.0 | 3.0 | 0.00 | 0.00 | 0.00 | 75 | 1010.0 |
| 20260508132341 | 51 | 103 | 0.0 | 2.0 | 0.00 | 0.00 | 0.00 | 80 | 1009.7 |
| 20260508131837 | 51 | 79 | 3.0 | 4.0 | 0.00 | 0.00 | 0.00 | 79 | 1010.0 |
| 20260508131333 | 51 | 66 | 2.0 | 4.0 | 0.00 | 0.00 | 0.00 | 78 | 1010.1 |
| 20260508130830 | 50 | 53 | 2.0 | 2.0 | 0.00 | 0.00 | 0.00 | 84 | 1010.0 |
| 20260508130327 | 49 | 71 | 2.0 | 3.0 | 0.00 | 0.00 | 0.00 | 89 | 1010.0 |
| 20260508125823 | 48 | 76 | 3.0 | 4.0 | 0.00 | 0.00 | 0.00 | 94 | 1010.1 |
| 20260508125319 | 47 | 77 | 3.0 | 5.0 | 0.00 | 0.00 | 0.00 | 99 | 1010.0 |
| 20260508124817 | 44 | 58 | 2.0 | 2.0 | 0.00 | 0.00 | 0.00 | 99 | 1010.3 |
| 20260508124314 | 43 | 44 | 2.0 | 3.0 | 0.00 | 0.00 | 0.00 | 98 | 1010.1 |
| 20260508123812 | 44 | 65 | 2.0 | 2.0 | 0.00 | 0.00 | 0.00 | 99 | 1010.3 |
| 20260508123312 | 42 | 60 | 2.0 | 2.0 | 0.00 | 0.00 | 0.00 | 99 | 1010.2 |
| 20260508122806 | 42 | 65 | 0.0 | 2.0 | 0.00 | 0.00 | 0.00 | 99 | 1009.9 |
| 20260508122306 | 41 | 55 | 2.0 | 3.0 | 0.00 | 0.00 | 0.00 | 99 | 1009.9 |
| 20260508121800 | 40 | 61 | 3.0 | 3.0 | 0.00 | 0.00 | 0.00 | 99 | 1009.8 |
| 20260508121259 | 39 | 50 | 2.0 | 2.0 | 0.00 | 0.00 | 0.00 | 99 | 1010.0 |
| 20260508120756 | 39 | 100 | 1.0 | 2.0 | 0.00 | 0.00 | 0.00 | 99 | 1010.1 |
| 20260508120254 | 39 | 80 | 1.0 | 2.0 | 0.00 | 0.00 | 0.00 | 99 | 1010.0 |
| 20260508115751 | 39 | 67 | 2.0 | 3.0 | 0.00 | 0.00 | 0.00 | 99 | 1010.3 |
| 20260508115248 | 39 | 55 | 2.0 | 2.0 | 0.00 | 0.00 | 0.00 | 99 | 1009.9 |
| 20260508114744 | 36 | 69 | 1.0 | 2.0 | 0.00 | 0.00 | 0.00 | 99 | 1010.2 |
| 20260508114242 | 35 | 82 | 1.0 | 2.0 | 0.00 | 0.00 | 0.00 | 99 | 1010.0 |
| 20260508113738 | 35 | 62 | 2.0 | 2.0 | 0.00 | 0.00 | 0.00 | 99 | 1009.9 |
| 20260508113237 | 34 | 74 | 2.0 | 2.0 | 0.00 | 0.00 | 0.00 | 99 | 1009.8 |
| 20260508112732 | 34 | 51 | 2.0 | 3.0 | 0.00 | 0.00 | 0.00 | 99 | 1009.9 |
| 20260508112229 | 34 | 63 | 2.0 | 2.0 | 0.00 | 0.00 | 0.00 | 99 | 1009.8 |
| 20260508111726 | 34 | 61 | 2.0 | 2.0 | 0.00 | 0.00 | 0.00 | 99 | 1009.7 |
| 20260508111224 | 34 | 62 | 2.0 | 2.0 | 0.00 | 0.00 | 0.00 | 99 | 1010.0 |
| 20260508110721 | 33 | 58 | 2.0 | 3.0 | 0.00 | 0.00 | 0.00 | 99 | 1009.9 |
| 20260508110218 | 33 | 54 | 2.0 | 2.0 | 0.00 | 0.00 | 0.00 | 99 | 1009.8 |
| 20260508105717 | 33 | 71 | 2.0 | 2.0 | 0.00 | 0.00 | 0.00 | 98 | 1009.9 |
| 20260508105215 | 33 | 78 | 2.0 | 2.0 | 0.00 | 0.00 | 0.00 | 98 | 1009.8 |
| 20260508104712 | 33 | 82 | 2.0 | 2.0 | 0.00 | 0.00 | 0.00 | 98 | 1009.8 |
| 20260508104209 | 34 | 66 | 1.0 | 2.0 | 0.00 | 0.00 | 0.00 | 99 | 1009.7 |
| 20260508103706 | 34 | 52 | 2.0 | 3.0 | 0.00 | 0.00 | 0.00 | 99 | 1009.8 |
| 20260508103203 | 34 | 60 | 2.0 | 2.0 | 0.00 | 0.00 | 0.00 | 98 | 1009.9 |
| 20260508102700 | 34 | 53 | 2.0 | 2.0 | 0.00 | 0.00 | 0.00 | 98 | 1009.7 |
| 20260508102158 | 34 | 84 | 1.0 | 2.0 | 0.00 | 0.00 | 0.00 | 98 | 1009.9 |
| 20260508101655 | 34 | 81 | 2.0 | 2.0 | 0.00 | 0.00 | 0.00 | 98 | 1009.9 |
| 20260508101153 | 34 | 65 | 1.0 | 2.0 | 0.00 | 0.00 | 0.00 | 98 | 1010.0 |
| 20260508100650 | 34 | 67 | 2.0 | 2.0 | 0.00 | 0.00 | 0.00 | 98 | 1009.9 |
| 20260508100148 | 34 | 51 | 2.0 | 3.0 | 0.00 | 0.00 | 0.00 | 98 | 1009.9 |
| 20260508095644 | 34 | 71 | 2.0 | 2.0 | 0.00 | 0.00 | 0.00 | 98 | 1009.8 |
| 20260508095141 | 34 | 63 | 2.0 | 2.0 | 0.00 | 0.00 | 0.00 | 98 | 1009.8 |
| 20260508094638 | 34 | 71 | 1.0 | 2.0 | 0.00 | 0.00 | 0.00 | 98 | 1010.1 |
| 20260508094135 | 34 | 55 | 2.0 | 2.0 | 0.00 | 0.00 | 0.00 | 98 | 1009.8 |
| 20260508093632 | 34 | 82 | 1.0 | 2.0 | 0.00 | 0.00 | 0.00 | 98 | 1009.8 |
| 20260508093130 | 35 | 84 | 2.0 | 2.0 | 0.00 | 0.00 | 0.00 | 98 | 1010.0 |
| 20260508092627 | 35 | 54 | 2.0 | 2.0 | 0.00 | 0.00 | 0.00 | 98 | 1009.9 |
| 20260508092125 | 35 | 49 | 2.0 | 2.0 | 0.00 | 0.00 | 0.00 | 98 | 1010.0 |
| 20260508091622 | 35 | 82 | 2.0 | 2.0 | 0.00 | 0.00 | 0.00 | 98 | 1009.9 |
| 20260508091119 | 35 | 67 | 2.0 | 3.0 | 0.00 | 0.00 | 0.00 | 98 | 1010.0 |
| 20260508090617 | 35 | 83 | 1.0 | 2.0 | 0.00 | 0.00 | 0.00 | 98 | 1010.0 |
| 20260508090114 | 35 | 51 | 2.0 | 2.0 | 0.00 | 0.00 | 0.00 | 98 | 1010.1 |
| 20260508085610 | 36 | 86 | 1.0 | 2.0 | 0.00 | 0.00 | 0.00 | 98 | 1009.8 |
| 20260508085108 | 36 | 87 | 1.0 | 2.0 | 0.00 | 0.00 | 0.00 | 98 | 1010.0 |
| 20260508084604 | 36 | 95 | 1.0 | 2.0 | 0.00 | 0.00 | 0.00 | 98 | 1010.1 |
| 20260508084102 | 36 | 35 | 2.0 | 3.0 | 0.00 | 0.00 | 0.00 | 98 | 1010.3 |
| 20260508083558 | 36 | 35 | 2.0 | 3.0 | 0.00 | 0.00 | 0.00 | 98 | 1010.1 |
| 20260508083055 | 37 | 47 | 2.0 | 2.0 | 0.00 | 0.00 | 0.00 | 98 | 1010.0 |
| 20260508082551 | 37 | 47 | 2.0 | 2.0 | 0.00 | 0.00 | 0.00 | 98 | 1009.9 |
| 20260508082048 | 37 | 85 | 2.0 | 2.0 | 0.00 | 0.00 | 0.00 | 98 | 1010.1 |
| 20260508081546 | 37 | 95 | 1.0 | 2.0 | 0.00 | 0.00 | 0.00 | 98 | 1009.9 |
| 20260508081042 | 37 | 92 | 1.0 | 2.0 | 0.00 | 0.00 | 0.00 | 98 | 1010.1 |
| 20260508080540 | 37 | 80 | 1.0 | 2.0 | 0.00 | 0.00 | 0.00 | 98 | 1010.2 |
| 20260508080037 | 37 | 66 | 2.0 | 2.0 | 0.00 | 0.00 | 0.00 | 98 | 1010.3 |
| 20260508075533 | 37 | 69 | 2.0 | 3.0 | 0.00 | 0.00 | 0.00 | 98 | 1010.4 |
| 20260508075031 | 37 | 73 | 2.0 | 2.0 | 0.00 | 0.00 | 0.00 | 98 | 1010.3 |
| 20260508074529 | 37 | 97 | 2.0 | 2.0 | 0.00 | 0.00 | 0.00 | 98 | 1010.3 |
| 20260508074025 | 36 | 72 | 2.0 | 2.0 | 0.00 | 0.00 | 0.00 | 97 | 1010.6 |
| 20260508073523 | 36 | 58 | 2.0 | 2.0 | 0.00 | 0.00 | 0.00 | 97 | 1010.7 |
| 20260508073020 | 36 | 67 | 1.0 | 2.0 | 0.00 | 0.00 | 0.00 | 97 | 1010.6 |
| 20260508072516 | 37 | 80 | 1.0 | 2.0 | 0.00 | 0.00 | 0.00 | 97 | 1010.8 |
| 20260508072013 | 37 | 74 | 1.0 | 2.0 | 0.00 | 0.00 | 0.00 | 97 | 1010.5 |
| 20260508071511 | 37 | 77 | 1.0 | 2.0 | 0.00 | 0.00 | 0.00 | 97 | 1010.5 |
| 20260508071008 | 37 | 84 | 2.0 | 2.0 | 0.00 | 0.00 | 0.00 | 98 | 1010.7 |
| 20260508070506 | 37 | 96 | 2.0 | 2.0 | 0.00 | 0.00 | 0.00 | 97 | 1010.5 |
| 20260508070005 | 37 | 89 | 1.0 | 2.0 | 0.00 | 0.00 | 0.00 | 97 | 1010.6 |
| 20260508065502 | 37 | 80 | 2.0 | 2.0 | 0.00 | 0.00 | 0.00 | 97 | 1010.6 |
| 20260508065000 | 37 | 79 | 2.0 | 2.0 | 0.00 | 0.00 | 0.00 | 97 | 1010.7 |
| 20260508064457 | 38 | 92 | 2.0 | 2.0 | 0.00 | 0.00 | 0.00 | 97 | 1010.8 |
| 20260508063954 | 38 | 103 | 2.0 | 2.0 | 0.00 | 0.00 | 0.00 | 97 | 1010.6 |
| 20260508063451 | 38 | 91 | 1.0 | 2.0 | 0.00 | 0.00 | 0.00 | 97 | 1010.6 |
| 20260508062949 | 38 | 58 | 2.0 | 3.0 | 0.00 | 0.00 | 0.00 | 97 | 1010.7 |
| 20260508062447 | 38 | 51 | 3.0 | 3.0 | 0.00 | 0.00 | 0.00 | 97 | 1010.8 |
| 20260508061943 | 38 | 65 | 2.0 | 2.0 | 0.00 | 0.00 | 0.00 | 97 | 1010.7 |
| 20260508061442 | 38 | 54 | 2.0 | 3.0 | 0.00 | 0.00 | 0.00 | 97 | 1010.7 |
| 20260508060937 | 38 | 47 | 2.0 | 3.0 | 0.00 | 0.00 | 0.00 | 97 | 1010.8 |
| 20260508060435 | 38 | 59 | 2.0 | 3.0 | 0.00 | 0.00 | 0.00 | 97 | 1011.0 |
| 20260508055931 | 38 | 59 | 2.0 | 3.0 | 0.00 | 0.00 | 0.00 | 97 | 1010.8 |
| 20260508055428 | 38 | 57 | 2.0 | 2.0 | 0.00 | 0.00 | 0.00 | 96 | 1010.9 |
| 20260508054924 | 38 | 79 | 2.0 | 2.0 | 0.00 | 0.00 | 0.00 | 96 | 1010.6 |
| 20260508054422 | 38 | 51 | 3.0 | 3.0 | 0.00 | 0.00 | 0.00 | 96 | 1010.7 |
| 20260508053918 | 39 | 47 | 2.0 | 3.0 | 0.00 | 0.00 | 0.00 | 96 | 1010.6 |
| 20260508053415 | 39 | 85 | 2.0 | 2.0 | 0.00 | 0.00 | 0.00 | 96 | 1010.7 |
| 20260508052913 | 39 | 103 | 1.0 | 2.0 | 0.00 | 0.00 | 0.00 | 96 | 1010.5 |
| 20260508052410 | 39 | 110 | 1.0 | 2.0 | 0.00 | 0.00 | 0.00 | 96 | 1010.6 |
| 20260508051906 | 38 | 116 | 2.0 | 2.0 | 0.00 | 0.00 | 0.00 | 96 | 1010.5 |
| 20260508051402 | 38 | 101 | 2.0 | 2.0 | 0.00 | 0.00 | 0.00 | 96 | 1010.1 |
| 20260508050858 | 38 | 50 | 0.0 | 2.0 | 0.00 | 0.00 | 0.00 | 96 | 1010.2 |
| 20260508050355 | 39 | 49 | 2.0 | 2.0 | 0.00 | 0.00 | 0.00 | 96 | 1010.3 |
| 20260508045851 | 39 | 58 | 2.0 | 2.0 | 0.00 | 0.00 | 0.00 | 95 | 1010.3 |
| 20260508045349 | 39 | 71 | 1.0 | 2.0 | 0.00 | 0.00 | 0.00 | 95 | 1010.1 |
| 20260508044847 | 39 | 50 | 2.0 | 3.0 | 0.00 | 0.00 | 0.00 | 95 | 1010.3 |
| 20260508044343 | 39 | 37 | 2.0 | 2.0 | 0.00 | 0.00 | 0.00 | 95 | 1010.1 |
| 20260508043839 | 39 | 56 | 1.0 | 2.0 | 0.00 | 0.00 | 0.00 | 95 | 1010.0 |
| 20260508043337 | 39 | 79 | 1.0 | 2.0 | 0.00 | 0.00 | 0.00 | 95 | 1009.9 |
| 20260508042833 | 39 | 89 | 1.0 | 2.0 | 0.00 | 0.00 | 0.00 | 94 | 1010.3 |
| 20260508042331 | 40 | 84 | 1.0 | 2.0 | 0.00 | 0.00 | 0.00 | 94 | 1010.1 |
| 20260508041827 | 40 | 50 | 2.0 | 2.0 | 0.00 | 0.00 | 0.00 | 94 | 1010.1 |
| 20260508041324 | 40 | 48 | 3.0 | 3.0 | 0.00 | 0.00 | 0.00 | 94 | 1010.1 |
| 20260508040820 | 40 | 84 | 2.0 | 2.0 | 0.00 | 0.00 | 0.00 | 94 | 1010.1 |
| 20260508040317 | 40 | 61 | 1.0 | 2.0 | 0.00 | 0.00 | 0.00 | 93 | 1010.0 |
| 20260508035815 | 40 | 102 | 2.0 | 2.0 | 0.00 | 0.00 | 0.00 | 93 | 1010.0 |
| 20260508035312 | 41 | 98 | 1.0 | 2.0 | 0.00 | 0.00 | 0.00 | 93 | 1009.8 |
| 20260508034809 | 41 | 89 | 2.0 | 2.0 | 0.00 | 0.00 | 0.00 | 93 | 1010.0 |
| 20260508034306 | 41 | 52 | 2.0 | 2.0 | 0.00 | 0.00 | 0.00 | 92 | 1009.8 |
| 20260508033803 | 41 | 87 | 2.0 | 2.0 | 0.00 | 0.00 | 0.00 | 92 | 1009.7 |
| 20260508033301 | 41 | 83 | 1.0 | 2.0 | 0.00 | 0.00 | 0.00 | 91 | 1009.6 |
| 20260508032758 | 42 | 95 | 1.0 | 2.0 | 0.00 | 0.00 | 0.00 | 91 | 1009.7 |
| 20260508032255 | 42 | 55 | 2.0 | 3.0 | 0.00 | 0.00 | 0.00 | 90 | 1009.9 |
| 20260508031752 | 42 | 91 | 2.0 | 2.0 | 0.00 | 0.00 | 0.00 | 90 | 1009.5 |
| 20260508031248 | 43 | 52 | 2.0 | 3.0 | 0.00 | 0.00 | 0.00 | 89 | 1009.6 |
| 20260508030744 | 43 | 52 | 2.0 | 2.0 | 0.00 | 0.00 | 0.00 | 89 | 1009.6 |
| 20260508030242 | 43 | 38 | 2.0 | 2.0 | 0.00 | 0.00 | 0.00 | 88 | 1010.0 |
| 20260508025738 | 44 | 100 | 1.0 | 2.0 | 0.00 | 0.00 | 0.00 | 87 | 1009.9 |
| 20260508025236 | 44 | 66 | 2.0 | 2.0 | 0.00 | 0.00 | 0.00 | 86 | 1009.6 |
| 20260508024731 | 44 | 57 | 1.0 | 3.0 | 0.00 | 0.00 | 0.00 | 86 | 1009.7 |
| 20260508024229 | 45 | 63 | 2.0 | 2.0 | 0.00 | 0.00 | 0.00 | 85 | 1009.5 |
| 20260508023726 | 45 | 40 | 4.0 | 4.0 | 0.00 | 0.00 | 0.00 | 86 | 1009.9 |
| 20260508023223 | 45 | 58 | 2.0 | 2.0 | 0.00 | 0.00 | 0.00 | 85 | 1009.6 |
| 20260508022718 | 45 | 27 | 3.0 | 4.0 | 0.00 | 0.00 | 0.00 | 86 | 1009.5 |
| 20260508022216 | 45 | 83 | 2.0 | 2.0 | 0.00 | 0.00 | 0.00 | 87 | 1009.4 |
| 20260508021712 | 44 | 75 | 2.0 | 5.0 | 0.00 | 0.00 | 0.00 | 88 | 1009.5 |
| 20260508021208 | 44 | 29 | 2.0 | 3.0 | 0.00 | 0.00 | 0.00 | 87 | 1009.1 |
| 20260508020706 | 44 | 99 | 2.0 | 2.0 | 0.00 | 0.00 | 0.00 | 87 | 1009.0 |
| 20260508020202 | 45 | 70 | 2.0 | 2.0 | 0.00 | 0.00 | 0.00 | 85 | 1009.0 |
| 20260508015700 | 45 | 70 | 2.0 | 2.0 | 0.00 | 0.00 | 0.00 | 85 | 1008.8 |
| 20260508015157 | 45 | 64 | 1.0 | 2.0 | 0.00 | 0.00 | 0.00 | 84 | 1008.9 |
| 20260508014653 | 46 | 69 | 2.0 | 2.0 | 0.00 | 0.00 | 0.00 | 83 | 1009.0 |
| 20260508014149 | 46 | 52 | 2.0 | 2.0 | 0.00 | 0.00 | 0.00 | 81 | 1008.9 |
| 20260508013646 | 47 | 64 | 2.0 | 2.0 | 0.00 | 0.00 | 0.00 | 80 | 1008.8 |
| 20260508013142 | 48 | 79 | 2.0 | 2.0 | 0.00 | 0.00 | 0.00 | 79 | 1008.6 |
| 20260508012640 | 48 | 87 | 1.0 | 2.0 | 0.00 | 0.00 | 0.00 | 78 | 1008.8 |
| 20260508012137 | 48 | 80 | 2.0 | 3.0 | 0.00 | 0.00 | 0.00 | 77 | 1008.6 |
| 20260508011635 | 49 | 92 | 2.0 | 3.0 | 0.00 | 0.00 | 0.00 | 77 | 1008.4 |
| 20260508011132 | 49 | 82 | 2.0 | 4.0 | 0.00 | 0.00 | 0.00 | 76 | 1008.5 |
| 20260508010629 | 49 | 86 | 2.0 | 4.0 | 0.00 | 0.00 | 0.00 | 76 | 1008.7 |
| 20260508010127 | 49 | 66 | 3.0 | 3.0 | 0.00 | 0.00 | 0.00 | 75 | 1008.6 |
| 20260508005623 | 50 | 81 | 2.0 | 2.0 | 0.00 | 0.00 | 0.00 | 75 | 1008.7 |
| 20260508005120 | 50 | 59 | 2.0 | 2.0 | 0.00 | 0.00 | 0.00 | 73 | 1008.3 |
| 20260508004616 | 50 | 81 | 2.0 | 3.0 | 0.00 | 0.00 | 0.00 | 73 | 1008.4 |
| 20260508004113 | 51 | 62 | 2.0 | 3.0 | 0.00 | 0.00 | 0.00 | 72 | 1008.5 |
| 20260508003609 | 51 | 101 | 3.0 | 3.0 | 0.00 | 0.00 | 0.00 | 71 | 1008.4 |
| 20260508003107 | 51 | 92 | 1.0 | 2.0 | 0.00 | 0.00 | 0.00 | 71 | 1008.4 |
| 20260508002603 | 51 | 106 | 0.0 | 2.0 | 0.00 | 0.00 | 0.00 | 70 | 1008.5 |
| 20260508002101 | 51 | 59 | 1.0 | 3.0 | 0.00 | 0.00 | 0.00 | 70 | 1008.3 |
| 20260508001556 | 51 | 109 | 2.0 | 3.0 | 0.00 | 0.00 | 0.00 | 69 | 1008.2 |
| 20260508001053 | 52 | 54 | 2.0 | 3.0 | 0.00 | 0.00 | 0.00 | 68 | 1008.4 |
| 20260508000548 | 52 | 97 | 2.0 | 2.0 | 0.00 | 0.00 | 0.00 | 67 | 1008.5 |
| 20260508000046 | 52 | 44 | 2.0 | 4.0 | 0.00 | 0.00 | 0.00 | 66 | 1008.3 |
| 20260507235542 | 52 | 43 | 4.0 | 5.0 | 0.00 | 0.00 | 0.00 | 65 | 1008.4 |
| 20260507235040 | 53 | 60 | 2.0 | 4.0 | 0.00 | 0.00 | 0.00 | 63 | 1007.9 |
| 20260507234536 | 54 | 64 | 5.0 | 7.0 | 0.00 | 0.00 | 0.00 | 61 | 1008.2 |
| 20260507234032 | 55 | 106 | 6.0 | 6.0 | 0.00 | 0.00 | 0.00 | 58 | 1008.2 |
| 20260507233529 | 56 | 350 | 3.0 | 5.0 | 0.00 | 0.00 | 0.00 | 55 | 1008.1 |
| 20260507233028 | 58 | 49 | 6.0 | 11.0 | 0.00 | 0.00 | 0.00 | 51 | 1008.2 |
| 20260507232524 | 59 | 110 | 3.0 | 6.0 | 0.00 | 0.00 | 0.00 | 43 | 1007.9 |
| 20260507232021 | 60 | 245 | 2.0 | 2.0 | 0.00 | 0.00 | 0.00 | 43 | 1007.7 |
| 20260507231518 | 60 | 174 | 1.0 | 2.0 | 0.00 | 0.00 | 0.00 | 42 | 1007.8 |
| 20260507231015 | 61 | 248 | 3.0 | 9.0 | 0.00 | 0.00 | 0.00 | 40 | 1007.8 |
| 20260507230512 | 61 | 79 | 1.0 | 4.0 | 0.00 | 0.00 | 0.00 | 43 | 1007.8 |
| 20260507230008 | 60 | 9 | 3.0 | 4.0 | 0.00 | 0.00 | 0.00 | 42 | 1008.3 |
| 20260507225503 | 61 | 243 | 0.0 | 5.0 | 0.00 | 0.00 | 0.00 | 41 | 1007.9 |
| 20260507225000 | 62 | 342 | 2.0 | 4.0 | 0.00 | 0.00 | 0.00 | 40 | 1008.2 |
| 20260507224455 | 62 | 288 | 4.0 | 5.0 | 0.00 | 0.00 | 0.00 | 43 | 1008.4 |
| 20260507223952 | 60 | 275 | 0.0 | 3.0 | 0.00 | 0.00 | 0.00 | 45 | 1008.3 |
| 20260507223448 | 58 | 338 | 1.0 | 6.0 | 0.00 | 0.00 | 0.00 | 48 | 1008.2 |